QPF
0.00 0.00 0.00 0.00 0.00 0.00 0.00 0.00 0.00 0.00 0.00 0.00 0.00 0.00 0.00 0.00 0.00 0.00 0.00 0.00 0.00 0.00 0.00 0.00 0.00 0.00 0.00 0.02 0.04 0.06 1.01 0.26 0.28 0.00 0.00 0.00 0.00 0.00 0.00 0.00 0.00 0.00 0.00 0.00 0.00
0.00 0.00 0.00 0.00 0.00 0.00 0.00 0.00 0.00 0.00 0.00 0.00 0.00 0.00 0.00 0.00 0.00 0.00 0.00 0.00 0.00 0.00 0.00 0.00 0.00 0.00 0.00 0.03 0.03 0.12 0.35 0.10 0.09 0.02 0.01 0.00 0.00 0.00 0.00 0.00 0.01 0.00 0.00 0.00 0.00
0.00 0.00 0.00 0.00 0.00 0.00 0.00 0.00 0.00 0.00 0.00 0.00 0.00 0.00 0.00 0.00 0.00 0.00 0.00 0.00 0.00 0.00 0.00 0.00 0.00 0.00 0.00 0.03 0.01 0.05 0.72 0.28 0.11 0.05 0.01 0.00 0.00 0.00 0.00 0.00 0.00 0.00 0.00 0.00 0.00
0.00 0.00 0.00 0.00 0.00 0.00 0.00 0.00 0.00 0.00 0.00 0.00 0.00 0.00 0.00 0.00 0.00 0.00 0.00 0.00 0.00 0.00 0.00 0.00 0.00 0.00 0.01 0.02 0.04 0.03 0.06 0.05 0.06 0.06 0.00 0.01 0.00 0.00 0.00 0.00 0.00 0.00 0.00 0.00 0.00
0.00 0.00 0.00 0.00 0.00 0.00 0.00 0.00 0.00 0.00 0.00 0.00 0.00 0.00 0.00 0.00 0.00 0.00 0.00 0.00 0.00 0.00 0.00 0.00 0.00 0.00 0.02 0.03 0.03 0.04 0.03 0.03 0.09 0.04 0.01 0.00 0.00 0.00 0.01 0.00 0.00 0.00 0.00 0.00 0.00
0.00 0.00 0.00 0.00 0.00 0.00 0.00 0.00 0.00 0.00 0.00 0.00 0.00 0.00 0.00 0.00 0.00 0.00 0.00 0.00 0.00 0.00 0.00 0.00 0.00 0.00 0.00 0.00 0.04 0.01 0.04 0.03 0.02 0.05 0.02 0.00 0.00 0.00 0.00 0.00 0.00 0.00 0.00 0.00 0.00
0.00 0.00 0.00 0.00 0.00 0.00 0.00 0.00 0.00 0.00 0.00 0.00 0.00 0.00 0.00 0.00 0.00 0.00 0.00 0.00 0.00 0.00 0.00 0.00 0.00 0.00 0.00 0.01 0.01 0.00 0.03 0.05 0.11 0.06 0.01 0.01 0.01 0.00 0.00 0.00 0.00 0.00 0.00 0.00 0.00
0.00 0.00 0.00 0.00 0.00 0.00 0.00 0.00 0.00 0.00 0.00 0.00 0.00 0.00 0.00 0.00 0.00 0.00 0.00 0.00 0.00 0.00 0.00 0.00 0.00 0.00 0.00 0.01 0.00 0.05 0.06 0.07 0.15 0.06 0.00 0.02 0.07 0.01 0.00 0.00 0.00 0.00 0.00 0.00 0.00
0.00 0.00 0.00 0.00 0.00 0.00 0.00 0.00 0.00 0.00 0.00 0.00 0.00 0.00 0.00 0.00 0.00 0.00 0.00 0.00 0.00 0.00 0.00 0.00 0.00 0.00 0.00 0.00 0.07 0.14 0.10 0.08 0.16 0.05 0.00 0.03 0.12 0.02 0.00 0.00 0.00 0.00 0.00 0.00 0.00
0.00 0.00 0.00 0.00 0.00 0.00 0.00 0.00 0.00 0.00 0.00 0.00 0.00 0.00 0.00 0.00 0.00 0.00 0.00 0.00 0.00 0.00 0.00 0.00 0.00 0.00 0.00 0.00 0.12 0.19 0.20 0.13 0.16 0.23 0.01 0.03 0.13 0.04 0.00 0.00 0.00 0.00 0.00 0.00 0.00
0.00 0.00 0.00 0.00 0.00 0.00 0.00 0.00 0.00 0.00 0.00 0.00 0.00 0.00 0.00 0.00 0.00 0.00 0.00 0.00 0.00 0.00 0.00 0.00 0.00 0.00 0.00 0.00 0.02 0.32 0.25 0.32 0.43 0.23 0.01 0.01 0.08 0.13 0.02 0.00 0.00 0.00 0.00 0.00 0.00
0.00 0.00 0.00 0.00 0.00 0.00 0.00 0.00 0.00 0.00 0.00 0.00 0.00 0.00 0.00 0.00 0.00 0.00 0.00 0.00 0.00 0.00 0.00 0.00 0.00 0.00 0.00 0.00 0.00 0.02 0.09 0.40 0.87 0.52 0.23 0.02 0.02 0.07 0.33 0.05 0.02 0.01 0.00 0.00 0.00
0.00 0.00 0.00 0.00 0.00 0.00 0.00 0.00 0.00 0.00 0.00 0.00 0.00 0.00 0.00 0.00 0.00 0.00 0.00 0.00 0.00 0.00 0.00 0.00 0.00 0.00 0.00 0.00 0.00 0.00 0.01 0.30 1.21 1.08 0.50 0.04 0.11 0.16 0.33 0.32 0.09 0.01 0.00 0.02 0.00
0.00 0.00 0.00 0.00 0.00 0.00 0.00 0.00 0.00 0.00 0.00 0.00 0.00 0.00 0.00 0.00 0.00 0.00 0.00 0.00 0.00 0.00 0.00 0.00 0.00 0.00 0.00 0.00 0.00 0.01 0.06 0.05 0.73 1.15 0.39 0.05 0.06 0.18 0.19 0.21 0.19 0.03 0.00 0.01 0.01
0.00 0.00 0.00 0.00 0.00 0.00 0.00 0.00 0.00 0.00 0.00 0.00 0.00 0.00 0.00 0.00 0.00 0.00 0.00 0.00 0.00 0.00 0.00 0.00 0.00 0.00 0.00 0.00 0.00 0.00 0.00 0.05 0.50 0.78 0.42 0.06 0.02 0.03 0.02 0.03 0.19 0.07 0.03 0.01 0.00
0.00 0.00 0.00 0.00 0.00 0.00 0.00 0.00 0.00 0.00 0.00 0.00 0.00 0.00 0.00 0.00 0.00 0.00 0.00 0.00 0.00 0.00 0.00 0.00 0.00 0.00 0.00 0.00 0.00 0.00 0.00 0.00 0.24 0.80 0.25 0.02 0.01 0.03 0.00 0.00 0.09 0.06 0.16 0.03 0.01
0.00 0.00 0.00 0.00 0.00 0.00 0.00 0.00 0.00 0.00 0.00 0.00 0.00 0.00 0.00 0.00 0.00 0.00 0.00 0.00 0.00 0.00 0.00 0.00 0.00 0.00 0.00 0.00 0.00 0.00 0.00 0.02 0.11 0.29 0.18 0.06 0.01 0.01 0.00 0.00 0.02 0.02 0.10 0.06 0.02
0.00 0.00 0.00 0.00 0.00 0.00 0.00 0.00 0.00 0.00 0.00 0.00 0.00 0.00 0.00 0.00 0.00 0.00 0.00 0.00 0.00 0.00 0.00 0.00 0.00 0.00 0.00 0.00 0.00 0.00 0.00 0.00 0.02 0.04 0.11 0.07 0.03 0.00 0.00 0.00 0.00 0.00 0.02 0.20 0.04
0.00 0.00 0.00 0.00 0.00 0.00 0.00 0.00 0.00 0.00 0.00 0.00 0.00 0.00 0.00 0.00 0.00 0.00 0.00 0.00 0.00 0.00 0.00 0.00 0.00 0.00 0.00 0.00 0.00 0.00 0.00 0.00 0.00 0.01 0.02 0.07 0.07 0.00 0.00 0.00 0.00 0.00 0.00 0.08 0.03
0.00 0.00 0.00 0.00 0.00 0.00 0.00 0.00 0.00 0.00 0.00 0.00 0.00 0.00 0.00 0.00 0.00 0.00 0.00 0.00 0.00 0.00 0.00 0.00 0.00 0.00 0.00 0.00 0.00 0.00 0.00 0.00 0.00 0.00 0.02 0.02 0.04 0.01 0.00 0.00 0.00 0.00 0.00 0.00 0.01
0.00 0.00 0.00 0.00 0.00 0.00 0.00 0.00 0.00 0.00 0.00 0.00 0.00 0.00 0.00 0.00 0.00 0.00 0.00 0.00 0.00 0.00 0.00 0.00 0.00 0.00 0.00 0.00 0.00 0.00 0.00 0.00 0.00 0.00 0.00 0.02 0.05 0.01 0.00 0.00 0.00 0.00 0.00 0.00 0.00
0.00 0.00 0.00 0.00 0.00 0.00 0.00 0.00 0.00 0.00 0.00 0.00 0.00 0.00 0.00 0.00 0.00 0.00 0.00 0.00 0.00 0.00 0.00 0.00 0.00 0.00 0.00 0.00 0.00 0.00 0.00 0.00 0.00 0.00 0.00 0.00 0.03 0.11 0.11 0.01 0.00 0.00 0.00 0.00 0.00
0.00 0.00 0.00 0.00 0.00 0.00 0.00 0.00 0.00 0.00 0.00 0.00 0.00 0.00 0.00 0.01 0.02 0.01 0.00 0.00 0.00 0.00 0.00 0.00 0.00 0.00 0.00 0.00 0.00 0.00 0.00 0.00 0.00 0.00 0.00 0.00 0.00 0.01 0.05 0.01 0.00 0.00 0.00 0.01 0.06
0.00 0.00 0.00 0.00 0.00 0.00 0.00 0.00 0.00 0.00 0.00 0.00 0.00 0.00 0.00 0.00 0.00 0.04 0.05 0.01 0.00 0.00 0.00 0.00 0.00 0.00 0.00 0.00 0.00 0.00 0.00 0.00 0.00 0.00 0.00 0.00 0.00 0.00 0.00 0.00 0.00 0.00 0.00 0.01 0.02
0.00 0.00 0.00 0.00 0.00 0.00 0.00 0.00 0.00 0.00 0.00 0.00 0.00 0.00 0.00 0.01 0.01 0.00 0.03 0.01 0.00 0.00 0.00 0.00 0.00 0.00 0.00 0.00 0.00 0.00 0.00 0.00 0.00 0.00 0.00 0.00 0.00 0.00 0.01 0.00 0.00 0.00 0.00 0.00 0.00
0.00 0.00 0.00 0.00 0.00 0.00 0.00 0.00 0.00 0.00 0.00 0.00 0.00 0.00 0.00 0.00 0.02 0.03 0.02 0.04 0.00 0.00 0.00 0.00 0.00 0.00 0.00 0.00 0.00 0.00 0.00 0.00 0.00 0.00 0.00 0.00 0.00 0.17 0.27 0.28 0.01 0.00 0.00 0.00 0.00
0.00 0.00 0.00 0.00 0.00 0.00 0.00 0.00 0.00 0.00 0.00 0.00 0.00 0.00 0.00 0.00 0.00 0.01 0.00 0.00 0.00 0.00 0.00 0.00 0.00 0.00 0.01 0.00 0.00 0.00 0.00 0.00 0.00 0.00 0.00 0.00 0.00 0.04 0.19 0.27 0.03 0.00 0.00 0.00 0.00
MSLP
1017.86 1017.60 1017.34 1017.08 1016.83 1016.57 1016.34 1016.14 1015.92 1015.69 1015.47 1015.27 1015.05 1014.80 1014.44 1013.99 1013.16 1012.20 1010.25 1008.40 1007.67 1008.39 1008.79 1007.74 1007.49 1006.62 1006.20 1006.61 1007.56 1007.57 1008.62 1009.65 1007.59 1005.96 1005.15 1004.82 1005.20 1005.63 1006.01 1006.57 1007.06 1007.68 1008.63 1010.42 1010.62
1017.75 1017.51 1017.27 1017.03 1016.74 1016.43 1016.16 1015.96 1015.76 1015.55 1015.36 1015.16 1014.93 1014.66 1014.34 1013.96 1012.68 1010.01 1007.78 1007.94 1008.30 1008.44 1008.40 1007.29 1006.25 1005.99 1005.97 1006.49 1007.10 1007.48 1008.39 1008.90 1007.56 1006.06 1004.50 1004.48 1005.22 1006.01 1006.75 1006.72 1007.22 1007.72 1008.72 1009.66 1010.11
1017.57 1017.32 1017.08 1016.86 1016.61 1016.36 1016.08 1015.82 1015.60 1015.38 1015.16 1014.97 1014.76 1014.48 1014.17 1013.80 1011.25 1007.14 1007.53 1007.83 1008.09 1008.42 1007.76 1006.40 1005.53 1005.22 1005.51 1006.35 1006.46 1007.05 1007.38 1007.66 1006.66 1005.94 1004.33 1004.62 1005.43 1006.04 1006.55 1006.96 1006.58 1007.72 1009.00 1009.44 1009.91
1017.47 1017.22 1017.01 1016.76 1016.42 1016.17 1015.97 1015.71 1015.50 1015.30 1015.09 1014.86 1014.60 1014.26 1013.87 1013.06 1008.88 1007.00 1007.54 1007.83 1008.16 1008.14 1007.68 1006.19 1005.30 1004.78 1005.02 1005.76 1006.06 1006.39 1006.76 1006.14 1005.76 1005.34 1004.07 1004.82 1005.41 1005.73 1006.36 1006.63 1007.00 1008.27 1009.55 1009.71 1009.89
1017.38 1017.10 1016.82 1016.57 1016.37 1016.10 1015.82 1015.56 1015.37 1015.18 1014.98 1014.78 1014.55 1014.26 1013.19 1010.70 1006.93 1006.96 1007.48 1007.74 1007.96 1008.05 1007.02 1005.77 1005.07 1004.55 1004.77 1005.34 1005.44 1005.83 1006.26 1005.82 1005.52 1004.42 1004.34 1005.15 1005.29 1006.16 1006.92 1007.14 1007.51 1008.46 1009.43 1009.61 1009.76
1017.31 1017.01 1016.71 1016.43 1016.22 1015.93 1015.64 1015.42 1015.22 1015.02 1014.86 1014.66 1014.48 1014.28 1012.68 1008.59 1005.65 1006.05 1006.62 1007.44 1006.97 1007.19 1006.31 1005.27 1004.61 1004.20 1004.32 1004.72 1005.42 1005.43 1005.86 1005.89 1005.33 1005.09 1004.72 1004.77 1005.11 1006.04 1007.50 1007.08 1007.72 1008.65 1009.22 1009.41 1009.78
1017.28 1016.91 1016.63 1016.30 1015.98 1015.72 1015.47 1015.29 1015.11 1014.91 1014.70 1014.55 1014.40 1013.69 1010.82 1007.15 1005.80 1005.50 1006.09 1006.55 1006.47 1006.21 1005.34 1004.80 1004.40 1003.97 1003.93 1004.18 1004.62 1004.99 1005.74 1006.55 1006.70 1006.52 1005.47 1005.32 1005.95 1006.44 1006.68 1007.04 1007.96 1008.67 1009.10 1009.37 1009.78
1017.26 1016.85 1016.53 1016.18 1015.85 1015.58 1015.37 1015.12 1014.91 1014.66 1014.50 1014.34 1014.26 1013.04 1008.91 1005.62 1005.64 1005.47 1005.42 1005.56 1005.85 1005.60 1004.82 1004.34 1004.38 1004.06 1003.70 1004.52 1004.67 1005.39 1006.15 1007.05 1007.42 1007.35 1007.15 1006.85 1007.53 1007.67 1007.37 1007.62 1008.28 1008.64 1009.02 1009.52 1010.00
1017.15 1016.76 1016.44 1016.14 1015.81 1015.49 1015.18 1014.79 1014.46 1014.15 1014.11 1014.01 1013.47 1011.57 1007.11 1006.34 1005.81 1005.22 1004.91 1004.66 1004.77 1004.95 1004.56 1004.07 1004.12 1004.27 1003.92 1004.16 1004.78 1006.21 1007.28 1007.80 1008.18 1007.65 1007.90 1008.44 1009.34 1009.10 1008.14 1008.36 1008.58 1008.82 1009.21 1009.53 1010.19
1016.93 1016.61 1016.30 1016.00 1015.63 1015.30 1014.81 1014.41 1013.72 1013.86 1013.52 1012.58 1011.45 1009.88 1006.42 1004.77 1004.63 1004.58 1004.85 1004.54 1004.52 1004.55 1004.51 1004.72 1004.48 1004.13 1003.68 1003.40 1004.72 1006.39 1007.95 1008.42 1008.69 1008.90 1008.78 1010.00 1011.03 1009.70 1009.38 1009.26 1009.25 1009.30 1009.48 1009.80 1010.24
1016.80 1016.39 1016.07 1015.80 1015.45 1015.16 1014.36 1013.40 1013.28 1012.19 1010.82 1008.74 1007.72 1006.49 1004.76 1004.80 1004.88 1004.83 1004.51 1004.53 1004.54 1004.41 1004.22 1004.22 1003.83 1002.84 1002.82 1002.85 1003.53 1006.52 1008.88 1009.61 1010.67 1010.75 1010.12 1011.24 1012.07 1011.91 1011.68 1011.17 1011.16 1010.07 1010.22 1010.43 1010.26
1016.74 1016.28 1015.92 1015.60 1015.27 1014.98 1014.80 1011.71 1008.81 1008.40 1007.38 1006.65 1005.92 1005.55 1005.07 1004.72 1004.68 1004.58 1004.67 1004.47 1004.26 1003.90 1003.80 1003.12 1002.66 1002.20 1002.22 1002.52 1004.62 1006.07 1008.70 1011.09 1012.14 1011.41 1013.00 1012.52 1013.24 1013.38 1012.63 1012.81 1012.70 1012.64 1012.14 1010.79 1010.56
1016.72 1016.26 1015.89 1015.41 1014.96 1014.49 1011.88 1009.65 1008.05 1007.75 1006.90 1005.17 1004.74 1004.50 1004.50 1004.89 1004.01 1003.95 1004.46 1004.00 1003.73 1003.59 1002.88 1002.12 1001.32 1001.54 1001.55 1001.97 1004.54 1006.33 1007.56 1010.02 1011.97 1012.54 1012.70 1012.79 1013.92 1014.38 1014.45 1013.86 1013.45 1012.45 1013.02 1012.08 1011.01
1016.64 1016.32 1015.93 1015.36 1014.95 1011.04 1009.06 1007.99 1007.66 1007.49 1006.29 1004.48 1004.04 1003.82 1004.22 1004.27 1003.66 1003.26 1004.08 1003.83 1003.02 1002.76 1002.38 1001.70 1000.73 1000.30 1000.96 1001.29 1003.10 1005.52 1008.54 1010.34 1012.00 1013.48 1013.70 1012.76 1013.42 1014.06 1014.56 1014.39 1014.02 1012.84 1013.46 1013.41 1011.97
1016.46 1016.19 1015.97 1015.97 1013.69 1010.43 1008.10 1007.52 1007.84 1007.52 1005.33 1003.82 1003.25 1003.78 1003.39 1003.89 1002.71 1002.95 1003.66 1003.68 1002.81 1002.28 1001.95 1000.89 1000.48 1000.06 1000.08 1000.70 1001.90 1004.96 1006.90 1009.21 1011.66 1013.36 1013.58 1012.40 1012.20 1012.71 1013.73 1013.92 1013.56 1012.60 1012.87 1012.34 1012.54
1016.25 1016.09 1015.88 1014.03 1013.32 1009.84 1008.43 1007.65 1007.59 1006.84 1004.33 1002.96 1003.01 1003.14 1003.46 1003.15 1002.57 1002.63 1003.41 1003.77 1002.83 1002.15 1001.67 1000.88 1000.28 1000.09 999.84 1000.18 1001.38 1003.27 1005.92 1009.06 1010.40 1012.12 1012.69 1010.40 1009.68 1010.87 1011.09 1011.27 1012.23 1012.34 1012.78 1012.86 1011.64
1015.84 1015.69 1015.85 1013.36 1009.97 1008.00 1008.02 1007.67 1006.76 1005.23 1003.54 1003.00 1002.49 1002.38 1002.49 1002.47 1002.24 1002.86 1003.28 1003.29 1002.82 1002.28 1001.39 1000.95 1000.14 999.76 1000.00 1000.23 1000.68 1002.10 1004.23 1006.71 1009.41 1011.41 1009.94 1008.84 1008.24 1007.87 1008.75 1009.19 1009.64 1011.44 1011.68 1012.47 1012.62
1015.18 1014.96 1013.01 1011.62 1009.18 1008.77 1008.21 1007.47 1006.19 1003.79 1002.83 1002.93 1002.78 1002.45 1002.35 1002.34 1002.05 1002.42 1002.79 1002.70 1002.69 1001.89 1000.65 1000.37 1000.03 999.94 999.98 1000.12 1000.04 1000.90 1002.72 1003.91 1006.46 1008.48 1008.84 1008.38 1006.77 1006.12 1006.85 1007.59 1008.37 1010.72 1011.88 1012.82 1012.09
1014.14 1012.03 1011.02 1009.42 1009.34 1009.24 1008.11 1006.35 1005.66 1003.80 1003.61 1003.33 1002.61 1002.80 1002.39 1002.18 1002.57 1002.57 1002.45 1002.20 1001.83 1001.92 1000.91 999.71 999.29 999.08 999.45 999.74 999.95 999.98 1000.94 1001.71 1003.44 1005.70 1006.58 1006.91 1005.92 1006.45 1006.85 1007.55 1008.51 1008.70 1009.08 1010.46 1010.95
1014.29 1010.68 1008.15 1007.42 1007.51 1007.98 1007.41 1005.64 1004.21 1004.40 1004.21 1003.80 1002.99 1002.97 1002.98 1003.52 1002.91 1002.96 1002.33 1001.52 1001.26 1001.03 1000.97 1000.43 1000.08 998.92 998.92 999.71 999.83 999.56 1000.16 1000.72 1002.60 1004.01 1004.80 1005.70 1006.48 1005.88 1006.45 1006.83 1007.64 1008.05 1008.40 1009.10 1010.16
1013.56 1009.60 1006.24 1006.52 1006.96 1006.98 1006.02 1005.49 1004.38 1004.25 1004.82 1004.26 1003.59 1003.07 1003.17 1005.54 1003.70 1003.79 1002.72 1003.24 1002.21 1001.53 1001.54 1001.13 1000.65 999.32 998.80 999.38 999.61 999.99 999.81 999.96 1000.41 1001.30 1003.08 1004.16 1005.69 1006.34 1005.57 1006.00 1006.43 1006.72 1007.01 1007.73 1008.58
1011.55 1008.18 1005.98 1006.22 1006.37 1005.32 1004.68 1004.77 1004.91 1004.21 1004.37 1004.32 1004.17 1004.26 1003.90 1004.74 1005.37 1006.63 1004.86 1004.56 1004.43 1003.17 1002.69 1002.05 1001.22 1000.41 999.70 999.48 999.83 999.62 999.64 999.72 999.67 1000.37 1000.97 1002.35 1004.44 1004.78 1006.75 1006.51 1006.19 1005.80 1005.98 1006.95 1007.05
1011.21 1007.40 1005.94 1005.92 1005.47 1004.74 1004.96 1004.24 1004.67 1004.52 1004.62 1004.67 1004.42 1004.14 1004.50 1005.44 1006.60 1007.63 1006.75 1006.16 1005.37 1004.49 1004.67 1003.98 1002.50 1001.56 1000.53 999.99 999.64 999.70 999.55 999.59 999.60 999.61 1000.00 1001.13 1004.85 1005.86 1006.52 1005.86 1006.49 1006.63 1007.44 1008.08 1008.08
1011.85 1006.84 1005.48 1005.61 1005.37 1004.79 1004.28 1004.05 1004.10 1004.80 1005.06 1005.28 1005.10 1004.91 1005.15 1005.46 1006.96 1008.05 1008.94 1007.31 1005.82 1005.23 1005.43 1005.24 1003.92 1002.61 1001.31 1001.21 1000.61 999.72 999.80 999.36 999.58 999.64 999.79 1000.43 1002.89 1004.94 1005.20 1005.62 1006.10 1006.78 1007.62 1009.08 1009.67
1011.18 1006.24 1005.10 1004.58 1004.46 1004.10 1004.11 1004.27 1004.46 1004.50 1004.78 1005.08 1005.19 1005.22 1005.09 1006.10 1008.21 1006.72 1007.62 1006.93 1006.17 1005.82 1005.59 1005.08 1004.38 1003.48 1002.36 1002.38 1001.64 1000.67 999.99 999.90 999.48 999.52 999.83 1000.58 1002.24 1004.01 1005.28 1005.73 1006.93 1008.60 1009.00 1009.58 1010.56
1010.54 1007.40 1005.67 1004.34 1004.40 1004.32 1004.65 1004.53 1004.70 1004.76 1005.44 1005.06 1005.32 1005.19 1005.52 1006.06 1007.61 1007.89 1007.98 1008.65 1006.87 1006.28 1005.68 1005.21 1005.05 1005.03 1004.23 1003.24 1002.65 1001.61 1000.45 1000.10 999.61 999.50 999.94 1001.32 1003.98 1006.14 1006.28 1008.32 1007.93 1008.62 1010.25 1010.64 1011.14
1009.96 1008.21 1007.22 1005.17 1004.53 1004.52 1003.96 1004.56 1005.10 1005.64 1005.96 1006.09 1005.98 1005.84 1005.35 1006.02 1006.57 1006.99 1007.18 1006.16 1006.96 1006.69 1006.20 1006.19 1006.50 1007.01 1005.62 1005.78 1003.67 1002.71 1001.46 1001.08 1000.13 1000.54 1000.78 1002.75 1004.86 1006.22 1006.71 1007.98 1008.49 1008.84 1009.73 1010.96 1011.92
Thickness
5726 5728 5729 5730 5731 5733 5734 5735 5736 5738 5741 5743 5746 5749 5753 5758 5767 5777 5786 5807 5814 5812 5809 5816 5816 5823 5827 5814 5810 5816 5765 5746 5752 5795 5800 5823 5811 5824 5829 5814 5816 5816 5808 5799 5806
5727 5728 5729 5730 5731 5732 5734 5735 5736 5736 5738 5740 5742 5746 5751 5755 5767 5784 5810 5810 5809 5810 5806 5806 5809 5819 5809 5806 5805 5794 5765 5758 5782 5806 5816 5824 5816 5812 5807 5808 5807 5809 5814 5813 5811
5729 5730 5730 5730 5731 5732 5732 5734 5734 5735 5737 5738 5740 5743 5747 5752 5770 5804 5809 5808 5808 5807 5813 5820 5823 5821 5806 5804 5806 5795 5759 5780 5794 5805 5831 5821 5814 5820 5807 5795 5815 5804 5802 5809 5809
5729 5729 5729 5729 5731 5731 5731 5732 5732 5732 5733 5735 5737 5741 5744 5752 5765 5804 5805 5805 5804 5806 5807 5813 5814 5808 5802 5792 5809 5791 5802 5806 5816 5818 5832 5818 5822 5815 5814 5812 5825 5816 5806 5807 5807
5728 5728 5728 5728 5727 5728 5728 5729 5729 5729 5730 5731 5733 5735 5746 5756 5776 5800 5800 5801 5801 5800 5800 5806 5803 5807 5793 5798 5808 5795 5802 5817 5815 5826 5832 5827 5818 5806 5807 5817 5825 5818 5810 5807 5809
5725 5725 5724 5724 5724 5724 5724 5724 5724 5725 5725 5726 5726 5727 5738 5746 5802 5802 5800 5796 5801 5796 5801 5810 5807 5817 5808 5806 5795 5809 5809 5811 5822 5815 5829 5821 5821 5816 5802 5822 5816 5811 5808 5810 5809
5722 5722 5721 5721 5721 5721 5720 5719 5719 5718 5719 5718 5719 5723 5738 5755 5796 5799 5798 5793 5800 5800 5799 5813 5818 5812 5816 5803 5820 5817 5800 5800 5802 5804 5813 5826 5804 5799 5820 5821 5809 5807 5808 5810 5810
5719 5719 5719 5718 5718 5717 5715 5714 5713 5713 5712 5711 5710 5719 5733 5785 5789 5789 5795 5792 5799 5805 5809 5818 5819 5812 5811 5815 5810 5797 5800 5776 5791 5793 5804 5805 5765 5798 5817 5812 5803 5806 5807 5807 5807
5715 5715 5714 5713 5712 5712 5710 5710 5709 5709 5706 5705 5708 5717 5733 5772 5766 5783 5792 5785 5793 5798 5807 5816 5811 5797 5806 5793 5784 5783 5764 5776 5779 5800 5796 5790 5761 5782 5812 5806 5801 5803 5804 5805 5803
5712 5711 5710 5709 5709 5707 5707 5706 5707 5704 5704 5708 5714 5711 5741 5749 5767 5778 5787 5788 5780 5784 5783 5785 5785 5778 5791 5791 5754 5767 5764 5778 5774 5764 5784 5766 5751 5785 5798 5798 5799 5799 5803 5802 5800
5708 5708 5706 5705 5704 5702 5704 5710 5707 5707 5711 5720 5724 5727 5744 5756 5767 5761 5777 5775 5775 5771 5756 5774 5763 5767 5787 5804 5809 5770 5745 5760 5748 5751 5771 5759 5749 5752 5769 5781 5776 5794 5794 5794 5799
5704 5703 5702 5701 5699 5698 5696 5710 5728 5727 5712 5735 5736 5734 5742 5751 5734 5749 5769 5753 5755 5747 5765 5767 5758 5791 5807 5811 5781 5768 5738 5726 5724 5730 5734 5748 5741 5746 5757 5759 5765 5769 5773 5793 5798
5699 5699 5698 5698 5697 5698 5714 5722 5739 5735 5707 5727 5736 5731 5732 5737 5732 5740 5755 5756 5750 5747 5759 5759 5784 5803 5802 5802 5772 5768 5762 5732 5718 5727 5726 5742 5727 5734 5740 5746 5756 5771 5771 5777 5791
5695 5693 5693 5694 5695 5722 5724 5738 5738 5735 5692 5710 5721 5731 5732 5734 5727 5759 5759 5753 5756 5749 5761 5767 5798 5799 5794 5793 5792 5746 5749 5740 5725 5707 5696 5741 5712 5723 5726 5733 5742 5760 5760 5765 5781
5691 5689 5688 5684 5700 5714 5731 5739 5735 5723 5665 5726 5729 5748 5741 5721 5737 5742 5763 5752 5744 5755 5763 5766 5780 5786 5785 5795 5801 5754 5773 5750 5727 5704 5702 5725 5734 5730 5732 5726 5739 5754 5760 5772 5778
5688 5686 5685 5695 5696 5721 5732 5738 5727 5685 5673 5723 5733 5722 5718 5729 5737 5747 5741 5754 5763 5756 5765 5771 5800 5795 5797 5808 5804 5781 5769 5740 5728 5709 5695 5745 5757 5730 5738 5752 5749 5756 5760 5762 5782
5687 5685 5681 5695 5713 5735 5734 5722 5689 5677 5734 5721 5727 5737 5729 5725 5735 5731 5726 5726 5726 5723 5735 5760 5773 5793 5797 5781 5801 5787 5771 5727 5706 5690 5716 5740 5759 5757 5767 5774 5770 5752 5759 5762 5768
5688 5687 5699 5706 5723 5727 5722 5700 5671 5723 5731 5739 5733 5735 5723 5733 5739 5733 5725 5722 5740 5746 5751 5741 5738 5773 5794 5784 5786 5786 5773 5748 5708 5713 5723 5738 5752 5770 5786 5786 5779 5758 5760 5756 5769
5692 5707 5708 5720 5720 5719 5706 5689 5689 5720 5728 5721 5733 5715 5722 5738 5733 5730 5728 5730 5745 5750 5737 5757 5755 5796 5794 5797 5798 5789 5771 5802 5771 5754 5748 5735 5751 5777 5782 5773 5771 5780 5783 5773 5778
5687 5708 5721 5733 5732 5718 5698 5691 5720 5726 5724 5723 5709 5722 5704 5709 5721 5724 5730 5757 5752 5764 5770 5759 5735 5784 5791 5792 5794 5793 5805 5773 5757 5729 5725 5741 5729 5748 5768 5774 5773 5779 5787 5785 5782
5688 5701 5735 5738 5733 5710 5692 5699 5719 5729 5721 5712 5711 5717 5720 5675 5716 5714 5728 5725 5741 5750 5758 5759 5752 5763 5787 5767 5766 5774 5776 5790 5799 5790 5740 5741 5735 5764 5784 5788 5789 5798 5804 5806 5804
5701 5693 5736 5738 5701 5716 5710 5714 5710 5722 5725 5716 5717 5711 5713 5704 5695 5676 5698 5711 5725 5736 5727 5748 5750 5737 5756 5786 5789 5787 5782 5789 5774 5770 5789 5779 5761 5781 5766 5779 5797 5807 5813 5811 5820
5691 5709 5735 5730 5692 5706 5711 5720 5718 5713 5709 5706 5704 5717 5715 5692 5675 5667 5689 5707 5719 5724 5708 5728 5729 5719 5739 5764 5782 5768 5783 5791 5797 5801 5782 5776 5732 5764 5757 5784 5792 5791 5793 5793 5805
5683 5698 5717 5719 5719 5711 5710 5714 5710 5715 5705 5703 5699 5706 5700 5697 5685 5654 5645 5689 5714 5716 5713 5715 5720 5722 5730 5732 5755 5760 5769 5787 5786 5775 5787 5795 5771 5768 5779 5783 5788 5790 5790 5780 5785
5687 5709 5720 5703 5712 5719 5719 5713 5701 5699 5709 5706 5693 5696 5697 5669 5648 5677 5669 5688 5703 5701 5712 5715 5703 5727 5743 5740 5750 5756 5769 5773 5776 5788 5786 5797 5784 5783 5783 5781 5776 5768 5774 5774 5773
5681 5695 5711 5720 5718 5712 5696 5702 5699 5702 5694 5693 5687 5697 5696 5683 5652 5646 5663 5631 5678 5695 5700 5714 5696 5705 5712 5740 5746 5748 5768 5776 5786 5795 5799 5782 5764 5758 5762 5739 5753 5756 5751 5758 5763
5693 5701 5696 5705 5711 5706 5711 5703 5697 5696 5694 5693 5690 5688 5691 5688 5689 5690 5686 5702 5687 5682 5688 5690 5684 5677 5695 5705 5733 5732 5751 5757 5784 5788 5792 5742 5749 5755 5747 5734 5734 5747 5755 5752 5752